EW0610 Weather Reports


Display with metric or nautical units.
time (UTC)temp
F
wind
direction
speed
MPH
gust
MPH
rain 1hr
in
rain 24hr
in
rain mn
in
humidity
%
barometer
mb
20260508113535 61 124 0.0 0.0 0.00 0.39 0.39 87 1014.2
20260508113043 60 122 0.0 0.0 0.00 0.39 0.39 87 1014.2
20260508112531 61 122 0.0 0.0 0.00 0.39 0.39 87 1014.3
20260508112037 61 122 0.0 0.0 0.03 0.39 0.39 87 1014.2
20260508111524 61 122 0.0 0.0 0.18 0.39 0.39 87 1014.2
20260508111028 60 122 0.0 0.0 0.22 0.39 0.39 87 1014.2
20260508110531 60 122 0.0 3.0 0.22 0.39 0.39 87 1013.9
20260508110038 60 122 0.0 3.0 0.22 0.39 0.39 87 1013.9
20260508105548 60 121 0.0 0.0 0.22 0.39 0.39 87 1013.8
20260508105033 61 121 0.0 0.0 0.23 0.39 0.39 87 1014.0
20260508104540 61 121 0.0 0.0 0.23 0.39 0.39 87 1014.1
20260508104023 60 121 0.0 0.0 0.23 0.39 0.39 86 1014.0
20260508103531 60 121 0.0 2.0 0.23 0.39 0.39 86 1013.9
20260508103041 60 122 0.0 3.0 0.26 0.39 0.39 86 1013.9
20260508102532 60 121 0.0 4.0 0.27 0.39 0.39 86 1013.8
20260508102038 61 123 0.0 4.0 0.25 0.37 0.37 86 1014.0
20260508101544 61 220 0.0 2.0 0.10 0.22 0.22 86 1014.6
20260508101027 61 214 0.0 2.0 0.05 0.17 0.17 86 1014.5
20260508100524 61 139 0.0 0.0 0.05 0.17 0.17 86 1013.9
20260508100037 61 135 0.0 0.0 0.05 0.17 0.17 86 1013.7
20260508095525 61 135 0.0 0.0 0.05 0.17 0.17 86 1013.8
20260508095033 61 135 0.0 0.0 0.04 0.16 0.16 86 1013.7
20260508094544 61 135 0.0 3.0 0.04 0.16 0.16 86 1013.8
20260508094048 61 136 0.0 3.0 0.04 0.16 0.16 85 1013.6
20260508093532 61 127 2.0 3.0 0.04 0.16 0.16 85 1013.5
20260508093100 61 123 0.0 2.0 0.02 0.14 0.14 86 1013.6
20260508092526 61 123 0.0 0.0 0.01 0.12 0.12 85 1013.7
20260508092100 61 123 0.0 0.0 0.01 0.12 0.12 85 1013.6
20260508091540 60 122 0.0 0.0 0.01 0.12 0.12 85 1013.7
20260508091023 60 123 0.0 0.0 0.01 0.12 0.12 85 1013.7
20260508090529 60 122 0.0 0.0 0.01 0.12 0.12 85 1013.9
20260508090036 60 122 0.0 0.0 0.01 0.12 0.12 85 1013.9
20260508085524 60 122 0.0 0.0 0.01 0.12 0.12 85 1013.8
20260508085032 60 122 0.0 0.0 0.01 0.12 0.12 85 1014.0
20260508084537 60 122 0.0 1.0 0.01 0.12 0.12 85 1014.1
20260508084023 60 122 0.0 0.0 0.01 0.12 0.12 85 1013.9
20260508083527 60 122 0.0 0.0 0.02 0.12 0.12 84 1013.9
20260508083032 60 123 0.0 0.0 0.02 0.12 0.12 84 1013.9
20260508082533 60 123 0.0 0.0 0.01 0.11 0.11 84 1014.1
20260508082040 60 123 0.0 0.0 0.01 0.11 0.11 84 1014.3
20260508081523 60 123 0.0 0.0 0.02 0.11 0.11 84 1014.2
20260508081057 61 123 0.0 1.0 0.03 0.11 0.11 83 1014.6
20260508080543 61 123 0.0 1.0 0.10 0.11 0.11 83 1014.7
20260508080029 61 123 0.0 0.0 0.11 0.11 0.11 83 1014.7
20260508075552 61 123 0.0 0.0 0.11 0.11 0.11 82 1014.4
20260508075101 61 123 0.0 4.0 0.11 0.11 0.11 82 1014.0
20260508074544 61 122 0.0 4.0 0.11 0.11 0.11 81 1014.0
20260508074026 61 116 0.0 5.0 0.11 0.11 0.11 80 1014.4
20260508073532 61 115 0.0 5.0 0.10 0.10 0.10 79 1014.4
20260508073039 61 231 0.0 4.0 0.10 0.10 0.10 79 1015.0
20260508072539 61 232 1.0 4.0 0.10 0.10 0.10 78 1015.3
20260508072025 61 231 0.0 1.0 0.10 0.10 0.10 77 1015.4
20260508071529 62 233 0.0 1.0 0.09 0.09 0.09 76 1015.3
20260508071032 63 233 0.0 1.0 0.08 0.08 0.08 73 1015.4
20260508070539 63 230 0.0 2.0 0.01 0.01 0.01 72 1015.6
20260508070046 64 230 0.0 2.0 0.00 0.00 0.00 70 1015.3
20260508065553 64 230 0.0 0.0 0.00 0.00 0.00 70 1015.3
20260508065023 64 195 0.0 0.0 0.00 0.00 0.00 69 1015.1
20260508064523 64 195 0.0 0.0 0.00 0.00 0.00 70 1014.9
20260508064031 64 195 0.0 0.0 0.00 0.00 0.00 70 1014.8
20260508063522 64 195 0.0 0.0 0.00 0.00 0.00 71 1015.1
20260508063033 63 195 0.0 0.0 0.00 0.00 0.00 70 1015.2
20260508062520 63 195 0.0 0.0 0.00 0.00 0.00 71 1015.3
20260508062028 63 195 0.0 0.0 0.00 0.00 0.00 71 1015.4
20260508061552 64 195 0.0 0.0 0.00 0.00 0.00 71 1015.5
20260508061036 64 195 0.0 0.0 0.00 0.00 0.00 69 1015.4
20260508060543 64 195 0.0 0.0 0.00 0.00 0.00 68 1015.2
20260508060044 64 195 0.0 0.0 0.00 0.00 0.00 67 1015.3
20260508055527 65 196 0.0 1.0 0.00 0.00 0.00 63 1015.5
20260508055032 65 195 0.0 0.0 0.00 0.00 0.00 63 1015.4
20260508054539 65 195 0.0 0.0 0.00 0.00 0.00 63 1015.5
20260508054041 65 195 0.0 0.0 0.00 0.00 0.00 64 1015.4
20260508053539 64 195 0.0 0.0 0.00 0.00 0.00 66 1015.3
20260508053109 64 195 0.0 0.0 0.00 0.00 0.00 67 1015.3
20260508052529 64 195 0.0 0.0 0.00 0.00 0.00 68 1015.3
20260508052037 64 195 0.0 0.0 0.00 0.00 0.00 68 1015.2
20260508051546 64 195 0.0 0.0 0.00 0.00 0.00 67 1015.3
20260508051033 64 195 0.0 0.0 0.00 0.00 0.00 67 1015.4
20260508050536 64 195 0.0 0.0 0.00 0.00 0.00 68 1015.4
20260508050044 64 195 0.0 0.0 0.00 0.00 0.00 68 1015.6
20260508045527 64 195 0.0 0.0 0.00 0.00 0.00 69 1015.4
20260508045032 63 195 0.0 0.0 0.00 0.00 0.00 69 1015.4
20260508044542 63 195 0.0 0.0 0.00 0.00 0.00 69 1015.5
20260508044050 63 195 0.0 0.0 0.00 0.00 0.00 68 1015.5
20260508043548 64 195 0.0 0.0 0.00 0.00 0.00 68 1015.6
20260508043032 63 195 0.0 0.0 0.00 0.00 0.00 68 1015.5
20260508042525 64 195 0.0 0.0 0.00 0.00 0.00 68 1015.3
20260508042029 64 195 0.0 0.0 0.00 0.00 0.00 67 1015.4
20260508041522 64 195 0.0 0.0 0.00 0.00 0.00 67 1015.4
20260508041050 64 195 0.0 0.0 0.00 0.00 0.00 66 1015.5
20260508040535 64 195 0.0 0.0 0.00 0.00 0.00 65 1015.4
20260508040023 64 195 0.0 0.0 0.00 0.00 0.00 66 1015.4
20260508035547 64 195 0.0 0.0 0.00 0.00 0.00 64 1015.5
20260508035031 65 195 0.0 0.0 0.00 0.00 0.00 63 1015.5
20260508034539 64 195 0.0 0.0 0.00 0.00 0.00 63 1015.4
20260508034028 64 195 0.0 0.0 0.00 0.00 0.00 64 1015.3
20260508033538 65 195 0.0 0.0 0.00 0.00 0.00 62 1015.2
20260508033025 65 195 0.0 0.0 0.00 0.00 0.00 61 1015.1
20260508032533 66 195 0.0 3.0 0.00 0.00 0.00 60 1015.1
20260508032054 66 195 0.0 3.0 0.00 0.00 0.00 60 1015.1
20260508031537 66 196 0.0 3.0 0.00 0.00 0.00 60 1015.1
20260508031025 66 195 0.0 1.0 0.00 0.00 0.00 61 1015.1
20260508030532 66 195 0.0 0.0 0.00 0.00 0.00 60 1015.1
20260508030036 66 196 0.0 5.0 0.00 0.00 0.00 60 1014.9
20260508025525 66 196 2.0 5.0 0.00 0.00 0.00 59 1014.9
20260508025034 66 199 0.0 5.0 0.00 0.00 0.00 60 1014.9
20260508024523 67 199 0.0 9.0 0.00 0.00 0.00 59 1014.9
20260508024033 67 136 0.0 9.0 0.00 0.00 0.00 59 1014.8
20260508023523 67 173 0.0 4.0 0.00 0.00 0.00 59 1014.7
20260508023055 67 182 0.0 4.0 0.00 0.00 0.00 59 1014.6
20260508022558 67 158 0.0 0.0 0.00 0.00 0.00 59 1014.5
20260508022041 67 148 0.0 0.0 0.00 0.00 0.00 59 1014.5
20260508021607 67 158 0.0 5.0 0.00 0.00 0.00 59 1014.6
20260508021054 67 158 0.0 5.0 0.00 0.00 0.00 59 1014.4
20260508020522 67 208 1.0 5.0 0.00 0.00 0.00 58 1014.4
20260508020030 67 166 0.0 5.0 0.00 0.00 0.00 58 1014.4
20260508015553 68 163 1.0 7.0 0.00 0.00 0.00 57 1014.4
20260508015033 68 163 4.0 7.0 0.00 0.00 0.00 57 1014.4
20260508014540 68 197 1.0 4.0 0.00 0.00 0.00 56 1014.4
20260508014026 68 195 0.0 6.0 0.00 0.00 0.00 57 1014.4
20260508013531 68 201 1.0 6.0 0.00 0.00 0.00 57 1014.3
20260508013021 68 205 1.0 5.0 0.00 0.00 0.00 57 1014.3
20260508012534 68 206 1.0 4.0 0.00 0.00 0.00 57 1014.3
20260508012022 68 208 0.0 5.0 0.00 0.00 0.00 57 1014.3
20260508011528 68 195 0.0 7.0 0.00 0.00 0.00 57 1014.3
20260508011046 68 196 0.0 7.0 0.00 0.00 0.00 56 1014.3
20260508010601 69 179 1.0 5.0 0.00 0.00 0.00 56 1014.4
20260508010024 69 197 1.0 6.0 0.00 0.00 0.00 55 1014.4
20260508005532 69 205 0.0 12.0 0.00 0.00 0.00 55 1014.5
20260508005020 69 193 6.0 12.0 0.00 0.00 0.00 55 1014.4
20260508004529 69 182 3.0 10.0 0.00 0.00 0.00 55 1014.4
20260508004041 70 180 1.0 10.0 0.00 0.00 0.00 55 1014.2
20260508003525 70 185 3.0 10.0 0.00 0.00 0.00 55 1014.1
20260508003028 70 164 0.0 10.0 0.00 0.00 0.00 55 1014.3
20260508002534 71 168 4.0 11.0 0.00 0.00 0.00 53 1014.3
20260508002023 72 132 5.0 11.0 0.00 0.00 0.00 50 1014.3
20260508001555 72 52 0.0 3.0 0.00 0.00 0.00 49 1014.4
20260508001037 72 39 0.0 3.0 0.00 0.00 0.00 46 1014.3
20260508000539 72 37 0.0 2.0 0.00 0.00 0.00 49 1014.4
20260508000046 72 37 0.0 0.0 0.00 0.00 0.00 51 1014.6
20260507235532 72 37 0.0 2.0 0.00 0.00 0.00 49 1014.5
20260507235039 72 37 0.0 2.0 0.00 0.00 0.00 49 1014.5
20260507234529 72 37 0.0 2.0 0.00 0.00 0.00 52 1014.5
20260507234106 73 37 0.0 0.0 0.00 0.00 0.00 49 1014.5
20260507233534 73 36 0.0 1.0 0.00 0.00 0.00 49 1014.5
20260507233025 73 37 0.0 1.0 0.00 0.00 0.00 50 1014.6
20260507232549 73 38 0.0 1.0 0.00 0.00 0.00 49 1014.5
20260507232058 73 37 0.0 1.0 0.00 0.00 0.00 48 1014.5
20260507231523 73 38 0.0 5.0 0.00 0.00 0.00 48 1014.5
20260507231032 73 37 0.0 5.0 0.00 0.00 0.00 48 1014.5
20260507230519 73 35 2.0 4.0 0.00 0.00 0.00 48 1014.5
20260507230029 73 33 0.0 4.0 0.00 0.00 0.00 48 1014.7
20260507225601 73 24 0.0 5.0 0.00 0.00 0.00 48 1014.8
20260507225027 73 24 0.0 5.0 0.00 0.00 0.00 47 1014.8
20260507224605 73 26 0.0 3.0 0.00 0.00 0.00 47 1014.8
20260507224028 73 22 0.0 3.0 0.00 0.00 0.00 47 1014.9
20260507223537 73 26 0.0 4.0 0.00 0.00 0.00 47 1014.9
20260507223108 73 25 0.0 4.0 0.00 0.00 0.00 47 1014.9
20260507222555 73 8 0.0 0.0 0.00 0.00 0.00 48 1014.9
20260507222042 73 7 0.0 5.0 0.00 0.00 0.00 49 1014.9
20260507221551 73 8 0.0 5.0 0.00 0.00 0.00 47 1015.0
20260507221038 73 356 2.0 5.0 0.00 0.00 0.00 46 1015.0
20260507220526 74 40 0.0 4.0 0.00 0.00 0.00 46 1015.0
20260507220032 74 41 1.0 4.0 0.00 0.00 0.00 46 1015.0
20260507215541 74 39 1.0 5.0 0.00 0.00 0.00 46 1015.0
20260507215029 73 43 0.0 5.0 0.00 0.00 0.00 45 1015.1
20260507214551 73 14 0.0 3.0 0.00 0.00 0.00 46 1015.1
20260507214038 74 16 0.0 5.0 0.00 0.00 0.00 45 1015.1
20260507213526 74 18 0.0 5.0 0.00 0.00 0.00 45 1015.3
20260507213032 74 358 0.0 2.0 0.00 0.00 0.00 45 1015.2
20260507212555 74 357 0.0 4.0 0.00 0.00 0.00 46 1015.4
20260507212036 74 356 0.0 4.0 0.00 0.00 0.00 44 1015.4
20260507211538 74 350 0.0 4.0 0.00 0.00 0.00 43 1015.4
20260507211023 75 349 1.0 4.0 0.00 0.00 0.00 42 1015.5
20260507210530 75 35 0.0 5.0 0.00 0.00 0.00 42 1015.7
20260507210037 76 44 1.0 6.0 0.00 0.00 0.00 41 1015.7
20260507205524 75 56 2.0 6.0 0.00 0.00 0.00 41 1015.7
20260507205030 75 81 0.0 9.0 0.00 0.00 0.00 42 1015.7
20260507204533 75 72 0.0 11.0 0.00 0.00 0.00 41 1015.7
20260507204033 75 69 5.0 11.0 0.00 0.00 0.00 42 1015.7
20260507203540 75 50 4.0 11.0 0.00 0.00 0.00 42 1015.6
20260507203053 75 56 6.0 11.0 0.00 0.00 0.00 43 1015.5
20260507202540 74 10 0.0 8.0 0.00 0.00 0.00 41 1015.6
20260507202027 75 16 2.0 8.0 0.00 0.00 0.00 42 1015.8
20260507201538 75 83 0.0 9.0 0.00 0.00 0.00 42 1016.0
20260507201043 75 97 6.0 9.0 0.00 0.00 0.00 42 1016.0
20260507200536 75 318 0.0 11.0 0.00 0.00 0.00 41 1016.1
20260507200024 76 63 0.0 11.0 0.00 0.00 0.00 40 1016.2
20260507195601 75 82 2.0 11.0 0.00 0.00 0.00 43 1016.2
20260507195047 75 46 4.0 11.0 0.00 0.00 0.00 42 1016.2
20260507194529 75 58 0.0 10.0 0.00 0.00 0.00 42 1016.3
20260507194039 74 43 6.0 10.0 0.00 0.00 0.00 43 1016.4
20260507193538 74 62 2.0 10.0 0.00 0.00 0.00 41 1016.5
20260507193046 74 304 1.0 7.0 0.00 0.00 0.00 44 1016.7
20260507192553 74 347 1.0 7.0 0.00 0.00 0.00 43 1016.8
20260507192022 74 60 2.0 11.0 0.00 0.00 0.00 42 1016.8
20260507191557 74 62 1.0 11.0 0.00 0.00 0.00 42 1016.8
20260507191025 73 357 0.0 12.0 0.00 0.00 0.00 44 1016.8
20260507190533 73 48 3.0 12.0 0.00 0.00 0.00 41 1016.9
20260507190029 73 45 1.0 9.0 0.00 0.00 0.00 42 1017.1
20260507185534 73 4 2.0 9.0 0.00 0.00 0.00 43 1017.2
20260507185022 73 56 3.0 10.0 0.00 0.00 0.00 42 1017.2
20260507184528 73 18 1.0 11.0 0.00 0.00 0.00 46 1017.2
20260507184038 72 349 4.0 14.0 0.00 0.00 0.00 43 1017.2
20260507183523 72 79 10.0 15.0 0.00 0.00 0.00 45 1017.3
20260507183031 72 58 4.0 15.0 0.00 0.00 0.00 46 1017.3
20260507182520 71 11 3.0 10.0 0.00 0.00 0.00 46 1017.2
20260507182043 73 36 5.0 14.0 0.00 0.00 0.00 45 1017.4
20260507181526 72 63 5.0 14.0 0.00 0.00 0.00 52 1017.4
20260507181040 71 41 3.0 11.0 0.00 0.00 0.00 46 1017.4
20260507180524 71 341 1.0 10.0 0.00 0.00 0.00 46 1017.5
20260507180032 71 19 4.0 10.0 0.00 0.00 0.00 47 1017.7
20260507175525 71 25 4.0 10.0 0.00 0.00 0.00 48 1017.7
20260507175032 71 13 4.0 15.0 0.00 0.00 0.00 46 1017.8
20260507174521 70 29 7.0 15.0 0.00 0.00 0.00 47 1017.9
20260507174101 70 16 1.0 12.0 0.00 0.00 0.00 50 1018.0
20260507173528 70 45 1.0 12.0 0.00 0.00 0.00 50 1018.2
20260507173039 70 1 6.0 12.0 0.00 0.00 0.00 48 1018.3
20260507172523 69 343 1.0 12.0 0.00 0.00 0.00 49 1018.4
20260507172026 69 358 3.0 7.0 0.00 0.00 0.00 52 1018.5
20260507171529 69 6 3.0 7.0 0.00 0.00 0.00 51 1018.8
20260507171039 68 351 0.0 10.0 0.00 0.00 0.00 51 1018.9
20260507170542 69 92 0.0 10.0 0.00 0.00 0.00 52 1019.2
20260507170026 68 60 2.0 6.0 0.00 0.00 0.00 54 1019.3
20260507165529 68 324 1.0 5.0 0.00 0.00 0.00 52 1019.3
20260507165033 68 81 0.0 7.0 0.00 0.00 0.00 55 1019.3
20260507164524 68 82 5.0 7.0 0.00 0.00 0.00 53 1019.4
20260507164033 68 340 1.0 11.0 0.00 0.00 0.00 52 1019.4
20260507163541 68 81 3.0 11.0 0.00 0.00 0.00 53 1019.4
20260507163043 67 35 4.0 11.0 0.00 0.00 0.00 52 1019.4
20260507162551 67 8 1.0 11.0 0.00 0.00 0.00 51 1019.4
20260507162033 67 50 4.0 7.0 0.00 0.00 0.00 55 1019.4
20260507161538 67 54 1.0 5.0 0.00 0.00 0.00 56 1019.4
20260507161044 67 77 1.0 12.0 0.00 0.00 0.00 56 1019.4
20260507160529 66 73 0.0 12.0 0.00 0.00 0.00 56 1019.4
20260507160032 66 61 5.0 12.0 0.00 0.00 0.00 56 1019.4
20260507155535 66 73 8.0 12.0 0.00 0.00 0.00 57 1019.5
20260507155039 66 2 2.0 6.0 0.00 0.00 0.00 57 1019.5
20260507154527 65 60 0.0 7.0 0.00 0.04 0.00 60 1019.5
20260507154032 65 59 2.0 9.0 0.00 0.04 0.00 59 1019.6
20260507153538 64 31 2.0 10.0 0.00 0.04 0.00 61 1019.7
20260507153025 64 66 0.0 10.0 0.00 0.04 0.00 61 1019.6
20260507152527 64 58 0.0 5.0 0.00 0.04 0.00 63 1019.7
20260507152036 64 68 1.0 9.0 0.00 0.04 0.00 63 1019.8
20260507151523 63 35 5.0 9.0 0.00 0.04 0.00 63 1019.9
20260507151028 63 67 0.0 7.0 0.00 0.04 0.00 64 1019.9
20260507150532 62 40 4.0 7.0 0.00 0.04 0.00 67 1020.0
20260507150037 62 37 0.0 6.0 0.00 0.04 0.00 68 1020.0
20260507145539 61 4 0.0 3.0 0.00 0.04 0.00 70 1020.0
20260507145037 60 4 0.0 4.0 0.00 0.04 0.00 70 1020.0
20260507144524 60 352 1.0 5.0 0.00 0.04 0.00 71 1020.1
20260507144102 60 19 1.0 5.0 0.00 0.04 0.00 71 1020.1
20260507143528 60 17 0.0 4.0 0.00 0.04 0.00 72 1020.1
20260507143040 60 16 0.0 4.0 0.00 0.04 0.00 72 1020.1
20260507142528 60 333 0.0 4.0 0.00 0.04 0.00 74 1020.2
20260507142033 59 9 0.0 4.0 0.00 0.04 0.00 73 1020.2
20260507141531 59 351 0.0 3.0 0.00 0.04 0.00 73 1020.3
20260507141034 59 351 1.0 3.0 0.00 0.04 0.00 73 1020.2
20260507140541 58 351 0.0 3.0 0.00 0.04 0.00 75 1020.3
20260507140026 58 351 0.0 3.0 0.00 0.04 0.00 75 1020.3
20260507135537 57 349 1.0 3.0 0.00 0.04 0.00 76 1020.3
20260507135038 57 10 0.0 0.0 0.00 0.04 0.00 77 1020.5
20260507134547 56 10 0.0 3.0 0.00 0.04 0.00 78 1020.5
20260507134029 55 6 0.0 3.0 0.00 0.04 0.00 78 1020.4
20260507133559 55 358 0.0 1.0 0.00 0.04 0.00 78 1020.5
20260507133026 55 4 0.0 1.0 0.00 0.04 0.00 78 1020.4
20260507132532 55 6 0.0 0.0 0.00 0.04 0.00 79 1020.5
20260507132036 55 7 0.0 0.0 0.00 0.04 0.00 80 1020.6
20260507131547 54 7 0.0 0.0 0.00 0.04 0.00 81 1020.5
20260507131032 54 7 0.0 0.0 0.00 0.04 0.00 82 1020.4
20260507130534 54 6 0.0 0.0 0.00 0.04 0.00 83 1020.5
20260507130039 53 6 0.0 0.0 0.00 0.04 0.00 84 1020.4
20260507125545 53 6 0.0 0.0 0.00 0.04 0.00 84 1020.3
20260507125023 53 6 0.0 0.0 0.00 0.04 0.00 85 1020.3
20260507124537 53 6 0.0 0.0 0.00 0.04 0.00 84 1020.2
20260507124024 52 6 0.0 0.0 0.00 0.04 0.00 85 1020.2
20260507123531 52 6 0.0 0.0 0.00 0.04 0.00 85 1020.0
20260507123102 52 6 0.0 0.0 0.00 0.04 0.00 85 1020.1
20260507122526 52 6 0.0 0.0 0.00 0.04 0.00 85 1020.1
20260507122100 52 6 0.0 0.0 0.00 0.04 0.00 85 1020.0
20260507121526 52 6 0.0 0.0 0.00 0.04 0.00 85 1020.1
20260507121033 51 6 0.0 0.0 0.00 0.04 0.00 85 1020.0
20260507120536 51 6 0.0 0.0 0.00 0.04 0.00 85 1019.9
20260507120023 51 6 0.0 0.0 0.00 0.04 0.00 85 1019.7
20260507115609 51 6 0.0 0.0 0.00 0.04 0.00 85 1019.6
20260507115054 51 6 0.0 0.0 0.00 0.04 0.00 85 1019.6
20260507114540 51 6 0.0 0.0 0.00 0.04 0.00 85 1019.6
20260507114030 51 6 0.0 0.0 0.00 0.04 0.00 85 1019.5